Voltar ao catálogo

STARLINK-37777

AtivoComunicaçõesSSO
NORAD 69349·PAYLOAD·🇺🇸 United States

Lançado Jun 3, 2026 de Vandenberg Space Force Base

Loading…

Próximas Passagens (próximas 24 horas)

TLE

AtualizadoSource: CelesTrak SupGP

Época: Sep 14, 2026, 23:09 UTC

1 69349C 26122W   26257.96506944  .00030492  00000+0  94657-3 0  2577
2 69349  97.2827 286.7161 0001031  87.0823 298.6670 15.33423236    13

Acompanhe STARLINK-37777 em tempo real com AllMySat

Download on the App Store